When you browse on this site, cookies collect data to enhance your experience and personalize the content and advertising you see.
Visit our Privacy Policy to learn more. By continuing to use the site, you agree to this use of cookies and data.
  • En España
  • Lista de países
  • Para 7 días
  • Temperatura del agua
  • Mapa Satelital
  • El tiempo en el mapa
  • Informadores
  • user-avatar
    Iniciar sesión

    Tiempo cada hora Portimao

    Hoy, 14 Diciembre, Viernes

    Tiempo Temperatura Precipitaciones Viento Presión Humedad
    00:00 +8°C° 0 mm 5 mps 768 mmHg 86%
    01:00 +8°C° 0 mm 5 mps 768 mmHg 87%
    02:00 +8°C° 0 mm 4 mps 768 mmHg 89%
    03:00 +8°C° 0 mm 4 mps 768 mmHg 89%
    04:00 +8°C° 0 mm 4 mps 768 mmHg 90%
    05:00 +8°C° 0 mm 5 mps 768 mmHg 91%
    06:00 +8°C° 0 mm 4 mps 769 mmHg 88%
    07:00 +10°C° 0 mm 4 mps 769 mmHg 85%
    08:00 +11°C° 0 mm 4 mps 769 mmHg 82%
    09:00 +12°C° 0 mm 4 mps 769 mmHg 76%
    10:00 +14°C° 0 mm 4 mps 770 mmHg 69%
    11:00 +15°C° 0 mm 4 mps 770 mmHg 62%
    12:00 +15°C° 0 mm 4 mps 770 mmHg 62%
    13:00 +17°C° 0 mm 4 mps 770 mmHg 62%
    14:00 +17°C° 0 mm 4 mps 769 mmHg 62%
    15:00 +14°C° 0 mm 3 mps 769 mmHg 69%
    16:00 +13°C° 0 mm 3 mps 769 mmHg 77%
    17:00 +12°C° 0 mm 2 mps 770 mmHg 84%
    18:00 +12°C° 0 mm 2 mps 770 mmHg 86%
    19:00 +12°C° 0 mm 2 mps 770 mmHg 88%
    20:00 +11°C° 0 mm 1 mps 770 mmHg 91%
    21:00 +11°C° 0 mm 1 mps 770 mmHg 91%
    22:00 +11°C° 0 mm 1 mps 771 mmHg 91%
    23:00 +11°C° 0 mm 1 mps 771 mmHg 92%

    Mañana, 15 Diciembre, Sábado

    Tiempo Temperatura Precipitaciones Viento Presión Humedad
    00:00 +11°C° 0 mm 1 mps 770 mmHg 91%
    01:00 +11°C° 0 mm 1 mps 770 mmHg 91%
    02:00 +10°C° 0 mm 1 mps 770 mmHg 91%
    03:00 +10°C° 0 mm 1 mps 770 mmHg 91%
    04:00 +10°C° 0 mm 1 mps 770 mmHg 91%
    05:00 +10°C° 0 mm 1 mps 770 mmHg 90%
    06:00 +11°C° 0 mm 1 mps 770 mmHg 87%
    07:00 +12°C° 0 mm 2 mps 770 mmHg 84%
    08:00 +13°C° 0 mm 2 mps 770 mmHg 81%
    09:00 +15°C° 0 mm 2 mps 770 mmHg 75%
    10:00 +17°C° 0 mm 2 mps 770 mmHg 68%
    11:00 +19°C° 0 mm 2 mps 770 mmHg 61%
    12:00 +19°C° 0 mm 2 mps 770 mmHg 61%
    13:00 +19°C° 0 mm 3 mps 770 mmHg 62%
    14:00 +19°C° 0 mm 3 mps 769 mmHg 62%
    15:00 +17°C° 0 mm 3 mps 769 mmHg 71%
    16:00 +16°C° 0 mm 3 mps 769 mmHg 80%
    17:00 +13°C° 0 mm 3 mps 769 mmHg 89%
    18:00 +12°C° 0 mm 3 mps 769 mmHg 91%
    19:00 +13°C° 0 mm 2 mps 769 mmHg 92%
    20:00 +13°C° 0 mm 2 mps 769 mmHg 94%
    21:00 +12°C° 0 mm 3 mps 769 mmHg 94%
    22:00 +11°C° 0 mm 3 mps 768 mmHg 95%
    23:00 +11°C° 0 mm 3 mps 768 mmHg 95%

    Pasado mañana, 16 Diciembre, Domingo

    Tiempo Temperatura Precipitaciones Viento Presión Humedad
    00:00 +12°C° 0 mm 4 mps 768 mmHg 95%
    01:00 +12°C° 0 mm 4 mps 767 mmHg 96%
    02:00 +12°C° 0 mm 4 mps 767 mmHg 96%
    03:00 +12°C° 0 mm 5 mps 767 mmHg 96%
    04:00 +13°C° 0 mm 5 mps 766 mmHg 96%
    05:00 +13°C° 0 mm 5 mps 766 mmHg 96%
    06:00 +14°C° 0.1 mm 5 mps 766 mmHg 95%
    07:00 +15°C° 0.1 mm 5 mps 767 mmHg 95%
    08:00 +16°C° 0.1 mm 6 mps 767 mmHg 94%
    09:00 +15°C° 1.2 mm 6 mps 767 mmHg 93%
    10:00 +15°C° 1.2 mm 6 mps 768 mmHg 93%
    11:00 +14°C° 1.2 mm 6 mps 768 mmHg 93%
    12:00 +15°C° 0.1 mm 5 mps 768 mmHg 86%
    13:00 +16°C° 0.1 mm 5 mps 767 mmHg 79%
    14:00 +17°C° 0.1 mm 4 mps 767 mmHg 72%
    15:00 +15°C° 0 mm 4 mps 768 mmHg 77%
    16:00 +13°C° 0 mm 4 mps 768 mmHg 82%
    17:00 +12°C° 0 mm 3 mps 768 mmHg 88%
    18:00 +12°C° 0 mm 3 mps 769 mmHg 90%
    19:00 +12°C° 0 mm 3 mps 769 mmHg 91%
    20:00 +11°C° 0 mm 3 mps 770 mmHg 93%
    21:00 +11°C° 0 mm 3 mps 770 mmHg 94%
    22:00 +11°C° 0 mm 3 mps 770 mmHg 94%
    23:00 +10°C° 0 mm 2 mps 770 mmHg 95%

    17 Diciembre, Lunes

    Tiempo Temperatura Precipitaciones Viento Presión Humedad
    00:00 +10°C° 0 mm 2 mps 770 mmHg 95%
    01:00 +9°C° 0 mm 2 mps 770 mmHg 94%
    02:00 +9°C° 0 mm 2 mps 770 mmHg 94%
    03:00 +9°C° 0 mm 2 mps 770 mmHg 94%
    04:00 +8°C° 0 mm 2 mps 770 mmHg 93%
    05:00 +8°C° 0 mm 2 mps 770 mmHg 93%
    06:00 +9°C° 0 mm 2 mps 770 mmHg 90%
    07:00 +9°C° 0 mm 2 mps 770 mmHg 86%
    08:00 +10°C° 0 mm 2 mps 771 mmHg 83%
    09:00 +13°C° 0 mm 2 mps 771 mmHg 74%
    10:00 +14°C° 0 mm 2 mps 770 mmHg 65%
    11:00 +16°C° 0 mm 2 mps 770 mmHg 56%
    12:00 +16°C° 0 mm 2 mps 770 mmHg 54%
    13:00 +17°C° 0 mm 2 mps 769 mmHg 51%
    14:00 +17°C° 0 mm 2 mps 768 mmHg 48%
    15:00 +16°C° 0 mm 1 mps 768 mmHg 54%
    16:00 +14°C° 0 mm 1 mps 768 mmHg 60%
    17:00 +13°C° 0 mm 1 mps 769 mmHg 66%
    18:00 +12°C° 0 mm 2 mps 769 mmHg 70%
    19:00 +10°C° 0 mm 2 mps 769 mmHg 73%
    20:00 +10°C° 0 mm 2 mps 769 mmHg 77%
    21:00 +10°C° 0 mm 2 mps 769 mmHg 77%
    22:00 +10°C° 0 mm 2 mps 769 mmHg 77%
    23:00 +10°C° 0 mm 2 mps 768 mmHg 78%

    18 Diciembre, Martes

    Tiempo Temperatura Precipitaciones Viento Presión Humedad
    00:00 +10°C° 0 mm 2 mps 768 mmHg 77%
    01:00 +10°C° 0 mm 2 mps 768 mmHg 77%
    02:00 +10°C° 0 mm 2 mps 767 mmHg 77%
    03:00 +9°C° 0 mm 2 mps 767 mmHg 80%
    04:00 +9°C° 0 mm 3 mps 767 mmHg 83%
    05:00 +9°C° 0 mm 3 mps 767 mmHg 86%
    06:00 +10°C° 0 mm 3 mps 767 mmHg 84%
    07:00 +11°C° 0 mm 3 mps 767 mmHg 83%
    08:00 +11°C° 0 mm 4 mps 767 mmHg 82%
    09:00 +13°C° 0 mm 4 mps 767 mmHg 78%
    10:00 +15°C° 0 mm 5 mps 767 mmHg 74%
    11:00 +19°C° 0 mm 6 mps 767 mmHg 71%
    12:00 +17°C° 0 mm 6 mps 766 mmHg 76%
    13:00 +17°C° 0 mm 6 mps 766 mmHg 81%
    14:00 +16°C° 0 mm 6 mps 765 mmHg 86%
    15:00 +16°C° 0.1 mm 5 mps 766 mmHg 89%
    16:00 +16°C° 0.1 mm 5 mps 766 mmHg 91%
    17:00 +16°C° 0.1 mm 5 mps 766 mmHg 93%
    18:00 +16°C° 0.1 mm 5 mps 766 mmHg 94%
    19:00 +15°C° 0.1 mm 5 mps 766 mmHg 95%
    20:00 +15°C° 0.1 mm 5 mps 766 mmHg 96%
    21:00 +15°C° 0.2 mm 5 mps 766 mmHg 94%
    22:00 +15°C° 0.2 mm 6 mps 766 mmHg 93%
    23:00 +16°C° 0.2 mm 6 mps 766 mmHg 92%

    19 Diciembre, Miércoles

    Tiempo Temperatura Precipitaciones Viento Presión Humedad
    00:00 +16°C° 1.1 mm 6 mps 766 mmHg 93%
    01:00 +16°C° 1.1 mm 5 mps 766 mmHg 94%
    02:00 +16°C° 1.1 mm 5 mps 766 mmHg 96%
    03:00 +15°C° 0.8 mm 4 mps 766 mmHg 96%
    04:00 +15°C° 0.8 mm 4 mps 766 mmHg 97%
    05:00 +16°C° 0.8 mm 3 mps 766 mmHg 98%
    06:00 +16°C° 0.2 mm 3 mps 766 mmHg 97%
    07:00 +16°C° 0.2 mm 3 mps 767 mmHg 97%
    08:00 +16°C° 0.2 mm 3 mps 767 mmHg 97%
    09:00 +14°C° 0.4 mm 3 mps 767 mmHg 96%
    10:00 +14°C° 0.4 mm 3 mps 767 mmHg 95%
    11:00 +13°C° 0.4 mm 3 mps 767 mmHg 94%
    12:00 +13°C° 0.1 mm 4 mps 767 mmHg 92%
    13:00 +13°C° 0.1 mm 4 mps 767 mmHg 90%
    14:00 +13°C° 0.1 mm 4 mps 766 mmHg 87%
    15:00 +12°C° 0.2 mm 4 mps 767 mmHg 87%
    16:00 +12°C° 0.2 mm 4 mps 767 mmHg 87%
    17:00 +11°C° 0.2 mm 4 mps 767 mmHg 87%
    18:00 +11°C° 0.1 mm 3 mps 767 mmHg 86%
    19:00 +10°C° 0.1 mm 3 mps 767 mmHg 85%
    20:00 +10°C° 0.1 mm 3 mps 768 mmHg 84%
    21:00 +9°C° 0 mm 3 mps 768 mmHg 84%
    22:00 +9°C° 0 mm 3 mps 768 mmHg 85%
    23:00 +9°C° 0 mm 3 mps 767 mmHg 86%
    Mostrar más